CES981 EGNX-EKBI

Flight info

Callsign CES981
Flight time 1h 9m
Altitude 33000
Route TNT3P TNT M868 ADELU/N0469F390 L60 MAMUL L603 LAMIX UT29 LIBSO UL975 ROPAL DCT LESRA DCT GELBA DCT
Aircraft A346/H-SDE2E3FGHIJ3J4J5M1RWXY/LB1D1

Departure

Time 2026-05-08 06:30
Airport East Midlands Airport (EGNX)

Arrival

Time 2026-05-08 07:40
Airport Billund Airport (EKBI)
Time Latitude Longitude Altitude Speed Heading
2026-05-08 06:08 52.82665 -1.34544 309 ft 0 kts 268°
2026-05-08 06:16 52.82707 -1.34600 308 ft 0 kts 268°
2026-05-08 06:16 52.82699 -1.34579 309 ft 0 kts 268°
2026-05-08 06:16 52.82745 -1.34770 309 ft 0 kts 178°
2026-05-08 06:17 52.82746 -1.34954 308 ft 0 kts 178°
2026-05-08 06:22 52.82755 -1.34954 308 ft 4 kts 176°
2026-05-08 06:22 52.82781 -1.34959 308 ft 4 kts 174°
2026-05-08 06:22 52.82799 -1.34959 308 ft 4 kts 208°
2026-05-08 06:23 52.82816 -1.34940 307 ft 4 kts 229°
2026-05-08 06:23 52.82825 -1.34908 309 ft 4 kts 260°
2026-05-08 06:23 52.82827 -1.34865 311 ft 4 kts 269°
2026-05-08 06:23 52.82827 -1.34854 309 ft 0 kts 268°
2026-05-08 06:25 52.82827 -1.34855 309 ft 1 kts 268°
2026-05-08 06:25 52.82822 -1.35086 311 ft 25 kts 268°
2026-05-08 06:26 52.82858 -1.35217 313 ft 6 kts
2026-05-08 06:26 52.82887 -1.35150 314 ft 19 kts 73°
2026-05-08 06:26 52.82915 -1.34953 315 ft 5 kts 38°
2026-05-08 06:26 52.82942 -1.34938 315 ft 0 kts 357°
2026-05-08 06:28 52.82946 -1.34938 315 ft 2 kts 357°
2026-05-08 06:29 52.82998 -1.34935 314 ft 29 kts
2026-05-08 06:29 52.83074 -1.34749 313 ft 18 kts 107°
2026-05-08 06:29 52.83072 -1.34523 312 ft 34 kts 88°
2026-05-08 06:29 52.83086 -1.33635 317 ft 115 kts 88°
2026-05-08 06:30 52.83118 -1.31931 339 ft 175 kts 89°
2026-05-08 06:30 52.83168 -1.29760 819 ft 196 kts 88°
2026-05-08 06:30 52.83199 -1.27468 1652 ft 203 kts 95°
2026-05-08 06:30 52.83175 -1.25023 2373 ft 224 kts 78°
2026-05-08 06:31 52.84004 -1.22736 3064 ft 248 kts 39°
2026-05-08 06:31 52.85639 -1.21638 3788 ft 267 kts
2026-05-08 06:31 52.87449 -1.22312 4712 ft 272 kts 327°
2026-05-08 06:31 52.88734 -1.24532 5794 ft 269 kts 294°
2026-05-08 06:32 52.89443 -1.27346 6899 ft 270 kts 295°
2026-05-08 06:32 52.90653 -1.29816 7918 ft 278 kts 322°
2026-05-08 06:32 52.92417 -1.31046 8911 ft 285 kts 351°
2026-05-08 06:32 52.94443 -1.31060 9957 ft 289 kts
2026-05-08 06:33 52.96448 -1.30899 10775 ft 299 kts
2026-05-08 06:33 52.98614 -1.30729 11372 ft 316 kts
2026-05-08 06:33 53.00847 -1.30570 11910 ft 335 kts
2026-05-08 06:33 53.03239 -1.30409 12428 ft 354 kts
2026-05-08 06:34 53.05763 -1.30240 12937 ft 373 kts
2026-05-08 06:34 53.08419 -1.30066 13440 ft 390 kts
2026-05-08 06:34 53.11166 -1.29888 14167 ft 399 kts
2026-05-08 06:34 53.13955 -1.29710 15007 ft 403 kts
2026-05-08 06:35 53.16773 -1.29532 15844 ft 408 kts
2026-05-08 06:35 53.19631 -1.29353 16646 ft 413 kts
2026-05-08 06:35 53.22519 -1.29172 17454 ft 418 kts
2026-05-08 06:35 53.25445 -1.28989 18265 ft 424 kts
2026-05-08 06:36 53.28410 -1.28802 18968 ft 428 kts
2026-05-08 06:36 53.31393 -1.28313 19632 ft 436 kts 12°
2026-05-08 06:36 53.34206 -1.26340 20300 ft 442 kts 32°
2026-05-08 06:36 53.36522 -1.22943 21041 ft 446 kts 51°
2026-05-08 06:37 53.38101 -1.18472 21735 ft 448 kts 69°
2026-05-08 06:37 53.38782 -1.13388 22414 ft 449 kts 88°
2026-05-08 06:37 53.38497 -1.08190 23091 ft 449 kts 106°
2026-05-08 06:37 53.37579 -1.03185 23782 ft 451 kts 109°
2026-05-08 06:38 53.36594 -0.98163 24325 ft 455 kts 111°
2026-05-08 06:38 53.35548 -0.93129 24879 ft 459 kts 111°
2026-05-08 06:38 53.34521 -0.88032 25434 ft 464 kts 110°
2026-05-08 06:38 53.33526 -0.82868 25984 ft 468 kts 110°
2026-05-08 06:39 53.32547 -0.77650 26534 ft 472 kts 109°
2026-05-08 06:39 53.31768 -0.72273 27035 ft 479 kts 98°
2026-05-08 06:39 53.31796 -0.66692 27712 ft 482 kts 83°
2026-05-08 06:39 53.32657 -0.61291 28566 ft 480 kts 69°
2026-05-08 06:40 53.34036 -0.56220 29463 ft 477 kts 65°
2026-05-08 06:40 53.35485 -0.51226 30239 ft 476 kts 64°
2026-05-08 06:40 53.36929 -0.46247 30888 ft 475 kts 64°
2026-05-08 06:40 53.38348 -0.41260 31577 ft 473 kts 65°
2026-05-08 06:41 53.39748 -0.36268 32207 ft 473 kts 65°
2026-05-08 06:41 53.41148 -0.31268 32707 ft 475 kts 65°
2026-05-08 06:41 53.42563 -0.26233 33118 ft 478 kts 64°
2026-05-08 06:41 53.43987 -0.21166 33175 ft 480 kts 64°
2026-05-08 06:42 53.46830 -0.11010 33180 ft 480 kts 65°
2026-05-08 06:42 53.49660 -0.00840 33180 ft 480 kts 65°
2026-05-08 06:43 53.52774 0.09098 33183 ft 480 kts 59°
2026-05-08 06:43 53.56513 0.18411 33186 ft 480 kts 53°
2026-05-08 06:44 53.60518 0.27321 33190 ft 480 kts 52°
2026-05-08 06:44 53.64560 0.36289 33191 ft 480 kts 52°
2026-05-08 06:45 53.68586 0.45283 33199 ft 480 kts 52°
2026-05-08 06:45 53.72603 0.54306 33197 ft 480 kts 53°
2026-05-08 06:46 53.76607 0.63333 33207 ft 480 kts 53°
2026-05-08 06:46 53.80606 0.72395 33204 ft 480 kts 53°
2026-05-08 06:47 53.84599 0.81473 33201 ft 480 kts 53°
2026-05-08 06:47 53.88587 0.90572 33207 ft 480 kts 53°
2026-05-08 06:48 53.92568 0.99687 33206 ft 480 kts 53°
2026-05-08 06:48 53.96539 1.08812 33203 ft 480 kts 53°
2026-05-08 06:49 54.00500 1.17946 33217 ft 480 kts 53°
2026-05-08 06:49 54.04459 1.27110 33218 ft 480 kts 53°
2026-05-08 06:50 54.08381 1.36222 33214 ft 480 kts 53°
2026-05-08 06:50 54.12322 1.45410 33215 ft 480 kts 54°
2026-05-08 06:51 54.16256 1.54616 33220 ft 480 kts 54°
2026-05-08 06:51 54.20186 1.63852 33218 ft 479 kts 53°
2026-05-08 06:52 54.24101 1.73085 33239 ft 479 kts 53°
2026-05-08 06:52 54.28013 1.82340 33227 ft 479 kts 53°
2026-05-08 06:53 54.31917 1.91610 33226 ft 479 kts 54°
2026-05-08 06:53 54.35811 2.00892 33226 ft 479 kts 54°
2026-05-08 06:54 54.39697 2.10193 33225 ft 479 kts 54°
2026-05-08 06:54 54.43577 2.19522 33231 ft 479 kts 53°
2026-05-08 06:55 54.47449 2.28855 33234 ft 479 kts 54°
2026-05-08 06:55 54.51311 2.38200 33235 ft 478 kts 53°
2026-05-08 06:56 54.55139 2.47496 33234 ft 478 kts 53°
2026-05-08 06:56 54.58987 2.56876 33234 ft 478 kts 54°
2026-05-08 06:57 54.62825 2.66267 33239 ft 478 kts 54°
2026-05-08 06:57 54.66655 2.75686 33239 ft 478 kts 54°
2026-05-08 06:58 54.70474 2.85102 33242 ft 478 kts 54°
2026-05-08 06:58 54.74285 2.94527 33248 ft 477 kts 54°
2026-05-08 06:59 54.78081 3.03961 33243 ft 477 kts 54°
2026-05-08 06:59 54.81869 3.13411 33242 ft 477 kts 54°
2026-05-08 07:00 54.85658 3.22899 33243 ft 477 kts 54°
2026-05-08 07:00 54.89437 3.32393 33249 ft 477 kts 54°
2026-05-08 07:01 54.93205 3.41902 33248 ft 477 kts 54°
2026-05-08 07:01 54.96939 3.51358 33258 ft 477 kts 55°
2026-05-08 07:02 55.00685 3.60882 33252 ft 476 kts 55°
2026-05-08 07:02 55.04419 3.70421 33250 ft 476 kts 55°
2026-05-08 07:03 55.08150 3.79985 33250 ft 476 kts 55°
2026-05-08 07:03 55.11833 3.89610 33250 ft 476 kts 58°
2026-05-08 07:04 55.15000 3.99776 33250 ft 475 kts 65°
2026-05-08 07:04 55.17619 4.10403 33250 ft 475 kts 68°
2026-05-08 07:05 55.20151 4.21105 33258 ft 475 kts 68°
2026-05-08 07:05 55.22661 4.31732 33254 ft 474 kts 69°
2026-05-08 07:06 55.25179 4.42425 33241 ft 474 kts 69°
2026-05-08 07:06 55.27686 4.53083 33254 ft 472 kts 69°
2026-05-08 07:07 55.30175 4.63750 33256 ft 472 kts 69°
2026-05-08 07:07 55.32257 4.72705 33261 ft 472 kts 69°
2026-05-08 07:08 55.34714 4.83316 33261 ft 472 kts 69°
2026-05-08 07:08 55.37154 4.94123 33269 ft 471 kts 72°
2026-05-08 07:09 55.39027 5.05153 33269 ft 470 kts 78°
2026-05-08 07:09 55.40296 5.16367 33270 ft 470 kts 81°
2026-05-08 07:10 55.40883 5.22030 33009 ft 470 kts 81°
2026-05-08 07:10 55.41469 5.27694 32488 ft 467 kts 82°
2026-05-08 07:10 55.42050 5.33305 31975 ft 463 kts 82°
2026-05-08 07:10 55.42622 5.38875 31495 ft 460 kts 82°
2026-05-08 07:11 55.43188 5.44400 31004 ft 457 kts 82°
2026-05-08 07:11 55.43751 5.49922 30528 ft 458 kts 82°
2026-05-08 07:11 55.44314 5.55458 30021 ft 459 kts 82°
2026-05-08 07:11 55.44875 5.60985 29454 ft 458 kts 82°
2026-05-08 07:12 55.45434 5.66530 28923 ft 459 kts 82°
2026-05-08 07:12 55.45952 5.72087 28387 ft 460 kts 84°
2026-05-08 07:12 55.46351 5.77695 27866 ft 461 kts 85°
2026-05-08 07:12 55.46714 5.83321 27356 ft 462 kts 85°
2026-05-08 07:13 55.47076 5.88973 26855 ft 463 kts 85°
2026-05-08 07:13 55.47440 5.94611 26354 ft 461 kts 85°
2026-05-08 07:13 55.47807 6.00217 25876 ft 458 kts 85°
2026-05-08 07:13 55.48174 6.05786 25395 ft 455 kts 85°
2026-05-08 07:14 55.48538 6.11317 24926 ft 452 kts 85°
2026-05-08 07:14 55.48898 6.16815 24469 ft 449 kts 85°
2026-05-08 07:14 55.49255 6.22276 23997 ft 446 kts 85°
2026-05-08 07:14 55.49608 6.27706 23499 ft 444 kts 85°
2026-05-08 07:15 55.49957 6.33102 22970 ft 441 kts 85°
2026-05-08 07:15 55.50302 6.38471 22446 ft 438 kts 85°
2026-05-08 07:15 55.50642 6.43799 21935 ft 435 kts 85°
2026-05-08 07:15 55.50977 6.49091 21431 ft 432 kts 85°
2026-05-08 07:16 55.51309 6.54359 20931 ft 429 kts 85°
2026-05-08 07:16 55.51635 6.59580 20447 ft 427 kts 85°
2026-05-08 07:16 55.51957 6.64779 19957 ft 424 kts 85°
2026-05-08 07:16 55.52276 6.69949 19481 ft 422 kts 85°
2026-05-08 07:17 55.52591 6.75084 19015 ft 419 kts 85°
2026-05-08 07:17 55.52904 6.80184 18557 ft 416 kts 85°
2026-05-08 07:17 55.53212 6.85259 18040 ft 414 kts 85°
2026-05-08 07:17 55.53525 6.90445 17505 ft 411 kts 85°
2026-05-08 07:18 55.53825 6.95458 17004 ft 408 kts 85°
2026-05-08 07:18 55.54114 7.00362 16524 ft 405 kts 85°
2026-05-08 07:18 55.54414 7.05477 15994 ft 402 kts 85°
2026-05-08 07:18 55.54698 7.10376 15515 ft 399 kts 85°
2026-05-08 07:19 55.54979 7.15243 15033 ft 396 kts 85°
2026-05-08 07:19 55.55259 7.20094 14559 ft 394 kts 85°
2026-05-08 07:19 55.55531 7.24893 14097 ft 391 kts 85°
2026-05-08 07:19 55.55800 7.29648 13586 ft 388 kts 85°
2026-05-08 07:20 55.56069 7.34409 13227 ft 383 kts 85°
2026-05-08 07:20 55.56330 7.39106 13215 ft 384 kts 85°
2026-05-08 07:20 55.56593 7.43819 13208 ft 385 kts 85°
2026-05-08 07:20 55.56850 7.48533 13208 ft 385 kts 85°
2026-05-08 07:21 55.57107 7.53242 13202 ft 385 kts 85°
2026-05-08 07:21 55.57363 7.57966 13203 ft 385 kts 85°
2026-05-08 07:21 55.57615 7.62657 13213 ft 385 kts 85°
2026-05-08 07:21 55.57870 7.67373 13211 ft 385 kts 86°
2026-05-08 07:22 55.58120 7.72094 13214 ft 385 kts 86°
2026-05-08 07:22 55.58368 7.76817 13213 ft 385 kts 86°
2026-05-08 07:22 55.58616 7.81536 13211 ft 385 kts 86°
2026-05-08 07:22 55.58860 7.86256 13209 ft 384 kts 86°
2026-05-08 07:23 55.59102 7.90948 13215 ft 383 kts 86°
2026-05-08 07:23 55.59343 7.95648 13218 ft 383 kts 86°
2026-05-08 07:23 55.59576 8.00262 13218 ft 382 kts 86°
2026-05-08 07:23 55.59813 8.04958 13218 ft 382 kts 86°
2026-05-08 07:24 55.60047 8.09647 13216 ft 382 kts 86°
2026-05-08 07:24 55.60279 8.14330 13215 ft 382 kts 86°
2026-05-08 07:24 55.60512 8.19023 13217 ft 382 kts 86°
2026-05-08 07:24 55.60741 8.23726 13218 ft 382 kts 86°
2026-05-08 07:25 55.60968 8.28418 13221 ft 382 kts 86°
2026-05-08 07:25 55.61193 8.33110 13216 ft 382 kts 86°
2026-05-08 07:25 55.61637 8.42515 13212 ft 382 kts 86°
2026-05-08 07:26 55.61857 8.47197 13217 ft 382 kts 86°
2026-05-08 07:26 55.62075 8.51887 12879 ft 381 kts 86°
2026-05-08 07:26 55.62291 8.56574 12214 ft 381 kts 86°
2026-05-08 07:26 55.62505 8.61247 11571 ft 379 kts 86°
2026-05-08 07:27 55.62715 8.65892 10938 ft 377 kts 86°
2026-05-08 07:27 55.62923 8.70507 10336 ft 374 kts 86°
2026-05-08 07:27 55.63125 8.75033 9470 ft 362 kts 86°
2026-05-08 07:27 55.63317 8.79373 8785 ft 344 kts 86°
2026-05-08 07:28 55.63499 8.83501 8124 ft 328 kts 86°
2026-05-08 07:28 55.63671 8.87451 7476 ft 316 kts 86°
2026-05-08 07:28 55.63836 8.91265 6842 ft 305 kts 86°
2026-05-08 07:28 55.63995 8.94963 6187 ft 296 kts 86°
2026-05-08 07:29 55.64149 8.98556 5517 ft 289 kts 86°
2026-05-08 07:29 55.64296 9.02060 4864 ft 282 kts 86°
2026-05-08 07:29 55.64440 9.05481 4375 ft 273 kts 86°
2026-05-08 07:29 55.64578 9.08785 4157 ft 266 kts 86°
2026-05-08 07:30 55.64712 9.12020 3894 ft 261 kts 86°
2026-05-08 07:30 55.64843 9.15199 3630 ft 256 kts 86°
2026-05-08 07:30 55.64971 9.18325 3362 ft 252 kts 87°
2026-05-08 07:30 55.65097 9.21405 3097 ft 249 kts 87°
2026-05-08 07:31 55.65221 9.24479 2968 ft 247 kts 87°
2026-05-08 07:31 55.65339 9.27394 2956 ft 236 kts 87°
2026-05-08 07:31 55.65455 9.30296 2956 ft 235 kts 87°
2026-05-08 07:31 55.65570 9.33188 2961 ft 235 kts 87°
2026-05-08 07:32 55.65683 9.36079 2960 ft 235 kts 87°
2026-05-08 07:32 55.65796 9.38970 2942 ft 235 kts 87°
2026-05-08 07:32 55.65909 9.41865 2941 ft 235 kts 87°
2026-05-08 07:32 55.66020 9.44764 2951 ft 235 kts 87°
2026-05-08 07:33 55.66132 9.47661 2948 ft 235 kts 87°
2026-05-08 07:33 55.66365 9.50533 2932 ft 237 kts 71°
2026-05-08 07:33 55.67246 9.52989 2943 ft 240 kts 45°
2026-05-08 07:33 55.68642 9.54636 2951 ft 243 kts 28°
2026-05-08 07:34 55.70154 9.55840 2946 ft 230 kts 25°
2026-05-08 07:34 55.71636 9.56672 2926 ft 219 kts
2026-05-08 07:34 55.73114 9.56337 2945 ft 215 kts 347°
2026-05-08 07:34 55.74432 9.55093 2942 ft 219 kts 313°
2026-05-08 07:35 55.75126 9.52720 2947 ft 219 kts 278°
2026-05-08 07:35 55.75192 9.50113 2985 ft 206 kts 267°
2026-05-08 07:35 55.75115 9.47582 2989 ft 204 kts 265°
2026-05-08 07:35 55.75012 9.45065 2956 ft 203 kts 264°
2026-05-08 07:36 55.74916 9.42644 2920 ft 188 kts 265°
2026-05-08 07:36 55.74835 9.40361 2803 ft 184 kts 265°
2026-05-08 07:36 55.74759 9.38108 2545 ft 181 kts 265°
2026-05-08 07:36 55.74689 9.35925 2291 ft 172 kts 265°
2026-05-08 07:37 55.74624 9.33867 2043 ft 162 kts 264°
2026-05-08 07:37 55.74561 9.31919 1830 ft 156 kts 264°
2026-05-08 07:37 55.74504 9.29994 1591 ft 156 kts 265°
2026-05-08 07:37 55.74443 9.28079 1362 ft 155 kts 264°
2026-05-08 07:38 55.74384 9.26166 1099 ft 154 kts 263°
2026-05-08 07:38 55.74319 9.24301 944 ft 153 kts 264°
2026-05-08 07:38 55.74265 9.22429 727 ft 149 kts 263°
2026-05-08 07:38 55.74200 9.20610 498 ft 146 kts 264°
2026-05-08 07:39 55.74140 9.18819 330 ft 145 kts 265°
2026-05-08 07:39 55.74088 9.17037 225 ft 133 kts 268°
2026-05-08 07:39 55.74054 9.15867 225 ft 56 kts 267°
2026-05-08 07:39 55.74046 9.15574 225 ft 50 kts 267°
2026-05-08 07:40 55.74026 9.14958 226 ft 48 kts 266°
2026-05-08 07:40 55.74045 9.14512 228 ft 16 kts 328°
2026-05-08 07:40 55.74104 9.14496 226 ft 17 kts 356°
2026-05-08 07:40 55.74219 9.14481 231 ft 2 kts 355°
2026-05-08 07:41 55.74227 9.14480 228 ft 3 kts 355°
2026-05-08 07:41 55.74275 9.14474 225 ft 8 kts 355°
2026-05-08 07:41 55.74343 9.14467 225 ft 12 kts 358°
2026-05-08 07:41 55.74418 9.14515 230 ft 12 kts 72°
2026-05-08 07:42 55.74440 9.14681 230 ft 16 kts 78°
2026-05-08 07:42 55.74452 9.14898 225 ft 19 kts 86°
2026-05-08 07:42 55.74490 9.15013 228 ft 6 kts
2026-05-08 07:42 55.74507 9.15013 226 ft 3 kts 359°
2026-05-08 07:43 55.74515 9.15013 228 ft 3 kts 359°
2026-05-08 07:43 55.74523 9.15012 232 ft 0 kts 358°